Location: Clifton Park
(41.4873°N, 81.8024°W)
Time: 04:56:03
(UTC+00:00)

STARLINK-76 - Pass Details

Date: 21 January 2020
Orbit: 528 x 531 km, 53.0° (Epoch: 26 February)

Event Time Altitude Azimuth Distance (km) Brightness Sun altitude
Exits shadow 10:57:58 54° 230° (SW) 644 3.6 -20.5°
Maximum altitude 10:58:49 89° 139° (SE) 533 3.4 -20.3°
Drops below altitude 10° 11:02:52 10° 52° (NE) 1,777 6.8 -19.6°
Sets 11:05:05 0° 53° (NE) 2,670 7.8 -19.2°
